Location: Brielles
(48.0083°N, 1.0901°W)
Time: 19:53:25
(UTC+00:00)

Daily predictions for brighter satellites

Satellite Brightness Start Highest point End
(mag) Time Altitude Azimuth Time Altitude Azimuth Time Altitude Azimuth
CORIOLIS 4.3 17:28:20 10° SSE 17:33:46 86° WSW 17:39:13 10° NNW
BREEZE-M DEB (TANK) 2.7 17:31:07 10° WSW 17:33:56 58° SSE 17:39:10 10° E
Cosmos 44 3.3 17:29:43 10° SW 17:34:01 72° NW 17:38:32 10° NE
Cosmos 2369 3.8 17:29:16 10° SSW 17:34:55 87° ESE 17:40:38 10° NNE
Cosmos 1607 4.0 17:29:58 10° SSW 17:36:02 67° ESE 17:42:11 10° NE
Cosmos 1980 Rocket 2.3 17:30:54 10° SSW 17:36:33 88° ESE 17:42:18 10° NNE
NOSS 2-1 (D) 4.0 17:34:34 10° NW 17:38:51 84° SW 17:44:53 10° SE
YAOGAN 1 3.9 17:36:44 10° ESE 17:39:49 19° ENE 17:42:55 10° NNE
Radarsat Rocket 4.1 17:34:54 10° SSE 17:40:51 69° ENE 17:47:30 10° NNW
Cosmos 1697 Rocket 3.7 17:37:28 10° SW 17:42:54 46° NW 17:48:22 10° NNE
AQUARIUS 4.5 17:39:55 10° S 17:44:23 74° WSW 17:48:54 10° NNW
Cosmos 1975 Rocket 4.0 17:41:16 10° SSW 17:45:38 53° WNW 17:50:00 10° N
ADEOS 3.7 17:41:47 10° SSE 17:47:00 85° WSW 17:52:15 10° NNW
USA 290 2.1 17:44:41 10° SSW 17:47:54 75° ESE 17:51:07 10° NNE
CZ-2C R/B 4.3 17:42:52 10° N 17:47:55 37° WNW 17:52:59 10° SW
Cosmos 1536 Rocket 3.7 17:45:23 10° SSE 17:49:32 49° E 17:53:44 10° NNE
Cosmos 2263 Rocket 2.5 17:45:08 10° NNW 17:50:43 74° WSW 17:56:15 10° SSE
Cosmos 2251 Rocket 3.6 17:54:54 10° SSW 18:00:15 88° WNW 18:05:41 10° NNE
Cosmos 1606 Rocket 4.1 17:57:49 10° N 18:01:46 33° ENE 18:05:42 10° SE
Cosmos 1763 Rocket 3.8 17:58:24 10° NNW 18:03:22 43° ENE 18:08:14 10° SE
PSLV R/B 4.4 18:02:04 10° SE 18:05:19 31° ENE 18:08:37 10° N
USA 215 4.1 18:01:09 10° SSE 18:07:32 54° SW 18:13:57 10° WNW
Cosmos 1328 3.7 18:03:42 10° S 18:07:38 64° E 18:11:35 10° NNE
CZ-4 R/B 2.6 18:06:07 10° ESE 18:09:20 22° ENE 18:12:32 10° NNE
ATLAS 2AS CENTAUR R/B 2.7 18:03:18 10° NW 18:10:23 66° NE 18:17:01 10° SE
Cosmos 2228 2.9 18:06:41 10° N 18:10:56 72° E 18:15:07 10° SSE
Lacrosse 5 rocket 2.2 18:08:15 10° NW 18:11:20 26° NNE 18:13:08 18° ENE
COSMO-SKYMED 1 2.5 18:10:01 10° NNE 18:14:22 70° ESE 18:18:41 10° S
CZ-4B DEB 4.1 18:13:08 10° SSE 18:18:34 77° ENE 18:24:03 10° NNW
Cosmos 1655 Rocket 4.3 18:14:38 10° NNW 18:20:55 73° W 18:27:05 10° S
Cosmos 1844 Rocket 2.9 18:16:37 10° NNW 18:22:01 48° NE 18:27:24 10° SE
Cosmos 1184 Rocket 3.7 18:20:01 10° NNW 18:22:13 36° W 18:24:25 10° SSW
RESURS DK-1 3.3 18:18:38 10° N 18:22:14 28° NE 18:23:47 22° E
Cosmos 724 4.3 18:16:19 10° SW 18:22:15 89° SE 18:28:23 10° NE
Cosmos 540 Rocket 3.8 18:18:32 10° N 18:23:26 41° ENE 18:28:16 10° SE
CZ-4B R/B 3.4 18:18:37 10° SE 18:23:42 47° ENE 18:28:54 10° N
CZ-4C R/B 3.1 18:22:19 10° NNE 18:26:15 78° ESE 18:29:57 10° S
Cosmos 1844 3.9 18:25:55 10° NNW 18:31:35 50° NE 18:37:11 10° SE
Cosmos 676 Rocket 4.2 18:28:31 10° S 18:33:37 51° ESE 18:38:26 12° NNE
Cosmos 1726 Rocket 3.5 18:30:35 10° N 18:34:50 55° ENE 18:39:04 10° SSE
Cosmos 2278 4.0 18:30:08 10° SW 18:35:46 67° WNW 18:41:29 10° NNE
Gblst 52 Del rocket 4.1 18:30:12 10° SW 18:35:48 69° SSE 18:39:00 25° ENE
Lacrosse 5 2.3 18:31:03 10° SSW 18:35:54 46° SE 18:38:20 26° ENE
Cosmos 407 Rocket 3.9 18:31:24 10° SW 18:36:30 62° WNW 18:41:37 10° NNE
COSMOS 2455 4.0 18:32:48 10° WSW 18:38:27 41° NW 18:44:09 10° NNE
Okean O Rocket 2.0 18:35:06 10° SE 18:39:13 41° ENE 18:43:22 10° N
Cosmos 2360 Rocket 2.6 18:36:48 10° S 18:41:59 39° ESE 18:44:47 24° NE
Feng Yun 1-1 Rocket 4.4 18:37:50 10° SE 18:43:08 46° ENE 18:48:20 10° N
Cosmos 2333 Rocket 3.0 18:38:43 10° SSE 18:43:23 27° ESE 18:43:54 27° E
Cosmos 2219 Rocket 3.8 18:39:54 10° SE 18:41:44 16° SE 18:41:44 16° SE
Cosmos 1892 2.7 18:42:21 10° SSW 18:46:03 76° W 18:49:49 10° N
Cosmos 2278 Rocket 3.9 18:44:02 10° N 18:47:26 16° NE 18:47:29 16° NE
PLATFORM 4.5 18:47:23 10° NW 18:51:13 76° NE 18:52:32 38° SE
Cosmos 1408 4.0 18:49:24 10° SW 18:52:34 35° WNW 18:55:46 10° N
Cosmos 2322 Rocket 2.1 18:47:07 10° SSW 18:52:40 67° ESE 18:56:48 19° NE
SL-4 R/B 2.2 18:49:18 10° WNW 18:52:43 46° N 18:53:25 40° NNE
Cosmos 1190 Rocket 4.3 18:49:06 10° SSW 18:54:23 70° WNW 18:59:42 10° NNE
Cosmos 1553 Rocket 3.9 18:50:38 10° S 18:56:35 61° E 19:02:38 10° NNE
Cosmos 1633 2.2 18:57:19 10° S 19:00:26 70° SE 19:00:26 70° SE
SL-08 R/B 4.4 18:56:00 10° N 19:02:15 76° E 19:08:33 10° SSE
Cosmos 1825 2.1 18:59:18 10° SSW 19:02:59 78° W 19:05:43 17° N
SL-16 R/B 2.4 19:00:13 10° SW 19:05:53 73° WNW 19:10:52 14° NNE
ATLAS CENTAUR R/B 3.3 19:02:17 10° W 19:06:19 28° NW 19:09:14 15° NNE
Cosmos 2058 Rocket 2.9 19:02:38 10° N 19:07:02 68° E 19:09:52 21° SSE
In-Cosmos 22 Rocket 4.3 19:03:00 10° SSW 19:08:49 86° WNW 19:14:41 10° N
BlueWalker 3 2.8 19:05:23 10° WNW 19:09:02 37° N 19:09:19 37° N
ISS -1.8 19:06:22 10° W 19:09:15 26° SW 19:10:24 21° S
CSL-04 Debris 4.2 19:12:45 44° ESE 19:13:58 53° ENE 19:19:13 10° N
YAOGAN 1 3.4 19:11:20 10° S 19:15:32 51° W 19:19:47 10° NNW
Cosmos 1461 2.8 19:13:34 10° SSW 19:17:49 76° SE 19:17:57 75° ESE
DMSP B5D1-3 4.4 19:12:46 10° NNE 19:17:54 89° WNW 19:23:01 10° SSW
Meteor 1-27 4.2 19:12:31 10° NNW 19:18:22 86° W 19:24:05 10° S
ATLAS 5 CENTAUR R/B 4.0 19:16:59 10° NNW 19:18:42 12° N 19:19:29 12° N
Spot 1 3.9 19:21:46 67° S 19:21:46 67° S 19:25:19 10° SSW
Cosmos 1980 Rocket 4.3 19:17:06 10° W 19:21:21 21° NW 19:25:39 10° N
CSL-04 Rocket 3.6 19:22:03 55° ENE 19:22:07 55° ENE 19:27:23 10° N
Cosmos 1869 3.5 19:20:39 10° NNW 19:24:30 67° W 19:25:47 39° SSW
Cosmos 1340 4.0 19:23:23 10° NNW 19:25:20 30° NNW 19:25:20 30° NNW
S3M 3.9 19:24:20 10° S 19:30:40 68° E 19:37:00 10° NNE
CZ-2C R/B 3.8 19:30:39 50° ENE 19:31:02 51° E 19:44:06 10° SSE
Cosmos 1943 Rocket 4.3 19:33:46 10° N 19:35:14 13° NNE 19:35:14 13° NNE
Cosmos 1850 Rocket 4.3 19:37:37 10° SSW 19:41:40 55° S 19:41:40 55° S
CZ-4 R/B 2.7 19:40:08 10° SSW 19:44:00 39° W 19:47:52 10° NNW
IGS 5A 4.4 19:46:37 44° NW 19:46:37 44° NW 19:49:43 10° NNW
Cosmos 1741 Rocket 4.4 19:44:06 10° SSW 19:48:09 54° SSW 19:48:09 54° SSW
Lacrosse 5 rocket 3.1 19:46:54 10° NW 19:48:33 25° WNW 19:48:33 25° WNW
Cosmos 841 Rocket 3.9 19:50:49 10° NNW 19:56:00 59° WSW 19:56:49 52° SW
RESURS DK-1 4.0 19:56:28 10° NW 19:59:39 33° W 19:59:39 33° W
ATLAS 2AS CENTAUR R/B 4.2 19:54:50 10° NW 20:00:51 32° WSW 20:06:35 10° S
Cosmos 1844 Rocket 4.3 20:00:53 10° NW 20:05:42 31° WSW 20:10:30 10° SSW
Okean O Rocket 3.9 20:12:12 10° SSW 20:15:42 23° W 20:19:14 10° NW
Lacrosse 5 3.0 20:13:54 10° WSW 20:17:34 40° WNW 20:17:34 40° WNW
Cosmos 2360 Rocket 3.3 20:20:42 10° WSW 20:25:59 40° NW 20:26:37 38° NW
Cosmos 2219 Rocket 3.9 20:21:25 10° SSW 20:23:32 24° SW 20:23:32 24° SW
Cosmos 2333 Rocket 3.1 20:21:46 10° SW 20:26:00 45° WSW 20:26:00 45° WSW
Cosmos 2278 Rocket 3.9 20:27:05 10° NNW 20:29:20 24° NNW 20:29:20 24° NNW
Cosmos 2322 Rocket 4.0 20:32:35 10° WSW 20:37:13 26° NW 20:38:40 23° NNW
